,,,PA_Meas_PMT16A,,PR_Meas_QMR101_102,,RH_Meas_QMH101,,SR_Meas_QMS101,,TA_Meas_QMH101,,GenWind,,GenWind,
date,time,status,PA,status,PR,status,RH,status,SR,status,TA,status,DirAvg,status,SpdAvg,
2011-10-21, 00:00:04,VALID,1009.089,VALID,0.0,VALID,104.0,VALID,0.0,VALID,22.681,VALID,333.0,VALID,0.0,
2011-10-21, 00:01:04,VALID,1009.103,VALID,0.0,VALID,104.0,VALID,0.0,VALID,22.699,VALID,332.0,VALID,0.0,
2011-10-21, 00:02:04,VALID,1009.076,VALID,0.0,VALID,104.0,VALID,0.0,VALID,22.7,VALID,332.0,VALID,0.0,
2011-10-21, 00:03:04,VALID,1009.083,VALID,0.0,VALID,104.0,VALID,0.0,VALID,22.739,VALID,333.0,VALID,0.0,
2011-10-21, 00:04:04,VALID,1009.1,VALID,0.0,VALID,104.0,VALID,0.0,VALID,22.739,VALID,332.0,VALID,0.0,
2011-10-21, 00:05:04,VALID,1009.113,VALID,0.0,VALID,104.0,VALID,0.0,VALID,22.699,VALID,332.0,VALID,0.0,
2011-10-21, 00:06:04,VALID,1009.116,VALID,0.0,VALID,104.0,VALID,0.0,VALID,22.718,VALID,332.0,VALID,0.0,
2011-10-21, 00:07:04,VALID,1009.115,VALID,0.0,VALID,104.0,VALID,0.112,VALID,22.718,VALID,333.0,VALID,0.0,
2011-10-21, 00:08:04,VALID,1009.149,VALID,0.0,VALID,104.0,VALID,0.0,VALID,22.718,VALID,332.0,VALID,0.0,
2011-10-21, 00:09:04,VALID,1009.155,VALID,0.0,VALID,104.0,VALID,0.0,VALID,22.72,VALID,332.0,VALID,0.0,
2011-10-21, 00:10:04,VALID,1009.195,VALID,0.0,VALID,104.0,VALID,0.0,VALID,22.718,VALID,332.0,VALID,0.0,
2011-10-21, 00:11:04,VALID,1009.214,VALID,0.0,VALID,104.0,VALID,0.0,VALID,22.739,VALID,332.0,VALID,0.0,
2011-10-21, 00:12:04,VALID,1009.214,VALID,0.0,VALID,104.0,VALID,0.0,VALID,22.739,VALID,332.0,VALID,0.0,
2011-10-21, 00:13:04,VALID,1009.234,VALID,0.0,VALID,104.0,VALID,0.112,VALID,22.757,VALID,332.0,VALID,0.0,
2011-10-21, 00:14:04,VALID,1009.226,VALID,0.0,VALID,104.0,VALID,0.0,VALID,22.759,VALID,333.0,VALID,0.0,
2011-10-21, 00:15:04,VALID,1009.259,VALID,0.0,VALID,104.0,VALID,0.0,VALID,22.739,VALID,332.0,VALID,0.372,
2011-10-21, 00:16:04,VALID,1009.253,VALID,0.0,VALID,104.0,VALID,0.0,VALID,22.718,VALID,332.0,VALID,0.245,
2011-10-21, 00:17:04,VALID,1009.263,VALID,0.0,VALID,104.0,VALID,0.0,VALID,22.738,VALID,332.0,VALID,0.304,
2011-10-21, 00:18:04,VALID,1009.254,VALID,0.0,VALID,104.0,VALID,0.112,VALID,22.718,VALID,333.0,VALID,0.327,
2011-10-21, 00:19:04,VALID,1009.263,VALID,0.0,VALID,104.0,VALID,0.0,VALID,22.739,VALID,332.0,VALID,0.327,
2011-10-21, 00:20:04,VALID,1009.276,VALID,0.0,VALID,104.0,VALID,0.112,VALID,22.738,VALID,335.0,VALID,0.478,
2011-10-21, 00:21:04,VALID,1009.278,VALID,0.0,VALID,104.0,VALID,0.112,VALID,22.738,VALID,335.0,VALID,0.543,
2011-10-21, 00:22:04,VALID,1009.283,VALID,0.0,VALID,104.0,VALID,0.112,VALID,22.718,VALID,3.0,VALID,0.73,
2011-10-21, 00:23:04,VALID,1009.322,VALID,0.0,VALID,104.0,VALID,0.0,VALID,22.738,VALID,15.0,VALID,0.327,
2011-10-21, 00:24:04,VALID,1009.329,VALID,0.0,VALID,104.0,VALID,0.0,VALID,22.738,VALID,15.0,VALID,0.263,
2011-10-21, 00:25:04,VALID,1009.317,VALID,0.0,VALID,104.0,VALID,0.0,VALID,22.778,VALID,15.0,VALID,0.456,
2011-10-21, 00:26:04,VALID,1009.324,VALID,0.0,VALID,104.0,VALID,0.112,VALID,22.738,VALID,16.0,VALID,0.258,
2011-10-21, 00:27:04,VALID,1009.305,VALID,0.0,VALID,104.0,VALID,0.0,VALID,22.759,VALID,42.0,VALID,0.727,
2011-10-21, 00:28:04,VALID,1009.303,VALID,0.0,VALID,104.0,VALID,0.112,VALID,22.738,VALID,46.0,VALID,0.48,
2011-10-21, 00:29:04,VALID,1009.324,VALID,0.0,VALID,104.0,VALID,0.112,VALID,22.738,VALID,46.0,VALID,0.178,
2011-10-21, 00:30:04,VALID,1009.308,VALID,0.0,VALID,104.0,VALID,0.112,VALID,22.757,VALID,54.0,VALID,0.468,
2011-10-21, 00:31:04,VALID,1009.314,VALID,0.0,VALID,104.0,VALID,0.0,VALID,22.778,VALID,53.0,VALID,0.471,
2011-10-21, 00:32:04,VALID,1009.33,VALID,0.0,VALID,104.0,VALID,0.0,VALID,22.777,VALID,54.0,VALID,0.414,
2011-10-21, 00:33:04,VALID,1009.331,VALID,0.0,VALID,104.0,VALID,0.0,VALID,22.777,VALID,54.0,VALID,0.318,
2011-10-21, 00:34:04,VALID,1009.317,VALID,0.0,VALID,104.0,VALID,0.0,VALID,22.777,VALID,54.0,VALID,0.406,
2011-10-21, 00:35:04,VALID,1009.301,VALID,0.0,VALID,104.0,VALID,0.0,VALID,22.757,VALID,50.0,VALID,0.576,
2011-10-21, 00:36:04,VALID,1009.311,VALID,0.0,VALID,104.0,VALID,0.112,VALID,22.759,VALID,50.0,VALID,0.333,
2011-10-21, 00:37:04,VALID,1009.311,VALID,0.0,VALID,104.0,VALID,0.112,VALID,22.738,VALID,51.0,VALID,0.314,
2011-10-21, 00:38:04,VALID,1009.317,VALID,0.0,VALID,104.0,VALID,0.0,VALID,22.759,VALID,50.0,VALID,0.59,
2011-10-21, 00:39:04,VALID,1009.296,VALID,0.0,VALID,104.0,VALID,0.0,VALID,22.759,VALID,50.0,VALID,0.431,
2011-10-21, 00:40:04,VALID,1009.301,VALID,0.0,VALID,104.0,VALID,0.112,VALID,22.718,VALID,45.0,VALID,0.562,
2011-10-21, 00:41:04,VALID,1009.277,VALID,0.0,VALID,104.0,VALID,0.0,VALID,22.72,VALID,44.0,VALID,0.116,
2011-10-21, 00:42:04,VALID,1009.293,VALID,0.0,VALID,104.0,VALID,0.0,VALID,22.739,VALID,43.0,VALID,0.242,
2011-10-21, 00:43:04,VALID,1009.285,VALID,0.0,VALID,104.0,VALID,0.112,VALID,22.739,VALID,43.0,VALID,0.51,
2011-10-21, 00:44:04,VALID,1009.284,VALID,0.0,VALID,104.0,VALID,0.112,VALID,22.718,VALID,44.0,VALID,0.13,
2011-10-21, 00:45:04,VALID,1009.285,VALID,0.0,VALID,104.0,VALID,0.112,VALID,22.739,VALID,44.0,VALID,0.105,
2011-10-21, 00:46:04,VALID,1009.31,VALID,0.0,VALID,104.0,VALID,0.0,VALID,22.759,VALID,43.0,VALID,0.0,
2011-10-21, 00:47:04,VALID,1009.287,VALID,0.0,VALID,104.0,VALID,0.0,VALID,22.759,VALID,43.0,VALID,0.0,
2011-10-21, 00:48:04,VALID,1009.305,VALID,0.0,VALID,104.0,VALID,0.0,VALID,22.739,VALID,43.0,VALID,0.0,
2011-10-21, 00:49:04,VALID,1009.31,VALID,0.0,VALID,104.0,VALID,0.0,VALID,22.759,VALID,43.0,VALID,0.0,
2011-10-21, 00:50:04,VALID,1009.324,VALID,0.0,VALID,104.0,VALID,0.0,VALID,22.739,VALID,44.0,VALID,0.0,
2011-10-21, 00:51:04,VALID,1009.342,VALID,0.0,VALID,104.0,VALID,0.0,VALID,22.759,VALID,44.0,VALID,0.0,
2011-10-21, 00:52:04,VALID,1009.377,VALID,0.0,VALID,104.0,VALID,0.0,VALID,22.759,VALID,44.0,VALID,0.0,
2011-10-21, 00:53:04,VALID,1009.391,VALID,0.0,VALID,104.0,VALID,0.0,VALID,22.759,VALID,43.0,VALID,0.099,
2011-10-21, 00:54:04,VALID,1009.412,VALID,0.0,VALID,104.0,VALID,0.0,VALID,22.718,VALID,44.0,VALID,0.058,
2011-10-21, 00:55:04,VALID,1009.417,VALID,0.0,VALID,104.0,VALID,0.0,VALID,22.739,VALID,44.0,VALID,0.0,
2011-10-21, 00:56:04,VALID,1009.415,VALID,0.0,VALID,104.0,VALID,0.0,VALID,22.739,VALID,43.0,VALID,0.0,
2011-10-21, 00:57:04,VALID,1009.438,VALID,0.0,VALID,104.0,VALID,0.112,VALID,22.718,VALID,43.0,VALID,0.0,
2011-10-21, 00:58:04,VALID,1009.438,VALID,0.0,VALID,104.0,VALID,0.112,VALID,22.718,VALID,44.0,VALID,0.0,
2011-10-21, 00:59:04,VALID,1009.46,VALID,0.0,VALID,104.0,VALID,0.112,VALID,22.738,VALID,43.0,VALID,0.217,
2011-10-21, 01:00:04,VALID,1009.421,VALID,0.0,VALID,104.0,VALID,0.0,VALID,22.759,VALID,43.0,VALID,0.183,
2011-10-21, 01:01:04,VALID,1009.432,VALID,0.0,VALID,104.0,VALID,0.0,VALID,22.739,VALID,44.0,VALID,0.451,
2011-10-21, 01:02:04,VALID,1009.442,VALID,0.0,VALID,104.0,VALID,0.0,VALID,22.738,VALID,46.0,VALID,0.575,
2011-10-21, 01:03:04,VALID,1009.442,VALID,0.0,VALID,104.0,VALID,0.0,VALID,22.759,VALID,47.0,VALID,0.391,
2011-10-21, 01:04:04,VALID,1009.455,VALID,0.0,VALID,104.0,VALID,0.0,VALID,22.759,VALID,42.0,VALID,0.651,
2011-10-21, 01:05:04,VALID,1009.426,VALID,0.0,VALID,104.0,VALID,0.0,VALID,22.739,VALID,42.0,VALID,0.356,
2011-10-21, 01:06:04,VALID,1009.416,VALID,0.0,VALID,104.0,VALID,0.0,VALID,22.739,VALID,42.0,VALID,0.358,
2011-10-21, 01:07:04,VALID,1009.441,VALID,0.0,VALID,104.0,VALID,0.0,VALID,22.739,VALID,42.0,VALID,0.0,
2011-10-21, 01:08:04,VALID,1009.441,VALID,0.0,VALID,104.0,VALID,0.0,VALID,22.739,VALID,42.0,VALID,0.237,
2011-10-21, 01:09:04,VALID,1009.417,VALID,0.0,VALID,104.0,VALID,0.0,VALID,22.72,VALID,43.0,VALID,0.252,
2011-10-21, 01:10:04,VALID,1009.453,VALID,0.0,VALID,104.0,VALID,0.0,VALID,22.72,VALID,42.0,VALID,0.012,
2011-10-21, 01:11:04,VALID,1009.424,VALID,0.0,VALID,104.0,VALID,0.0,VALID,22.699,VALID,42.0,VALID,0.001,
2011-10-21, 01:12:04,VALID,1009.47,VALID,0.0,VALID,104.0,VALID,0.0,VALID,22.72,VALID,42.0,VALID,0.421,
2011-10-21, 01:13:04,VALID,1009.442,VALID,0.0,VALID,104.0,VALID,0.0,VALID,22.7,VALID,42.0,VALID,0.387,
2011-10-21, 01:14:04,VALID,1009.433,VALID,0.0,VALID,104.0,VALID,0.0,VALID,22.7,VALID,36.0,VALID,0.328,
2011-10-21, 01:15:04,VALID,1009.442,VALID,0.0,VALID,104.0,VALID,0.0,VALID,22.681,VALID,36.0,VALID,0.145,
2011-10-21, 01:16:04,VALID,1009.408,VALID,0.0,VALID,104.0,VALID,0.0,VALID,22.681,VALID,36.0,VALID,0.429,
2011-10-21, 01:17:04,VALID,1009.431,VALID,0.0,VALID,104.0,VALID,0.0,VALID,22.681,VALID,36.0,VALID,0.055,
2011-10-21, 01:18:04,VALID,1009.417,VALID,0.0,VALID,104.0,VALID,0.112,VALID,22.681,VALID,36.0,VALID,0.083,
2011-10-21, 01:19:04,VALID,1009.403,VALID,0.0,VALID,104.0,VALID,0.0,VALID,22.7,VALID,36.0,VALID,0.408,
2011-10-21, 01:20:04,VALID,1009.4,VALID,0.0,VALID,104.0,VALID,0.0,VALID,22.681,VALID,36.0,VALID,0.317,
2011-10-21, 01:21:04,VALID,1009.389,VALID,0.0,VALID,104.0,VALID,0.0,VALID,22.681,VALID,36.0,VALID,0.154,
2011-10-21, 01:22:04,VALID,1009.365,VALID,0.0,VALID,104.0,VALID,0.0,VALID,22.681,VALID,36.0,VALID,0.0,
2011-10-21, 01:23:04,VALID,1009.367,VALID,0.0,VALID,104.0,VALID,0.0,VALID,22.681,VALID,36.0,VALID,0.472,
2011-10-21, 01:24:04,VALID,1009.34,VALID,0.0,VALID,104.0,VALID,0.0,VALID,22.681,VALID,36.0,VALID,0.237,
2011-10-21, 01:25:04,VALID,1009.339,VALID,0.0,VALID,104.0,VALID,0.0,VALID,22.681,VALID,36.0,VALID,0.227,
2011-10-21, 01:26:04,VALID,1009.332,VALID,0.0,VALID,104.0,VALID,0.0,VALID,22.681,VALID,36.0,VALID,0.165,
2011-10-21, 01:27:04,VALID,1009.328,VALID,0.0,VALID,104.0,VALID,0.0,VALID,22.661,VALID,36.0,VALID,0.0,
2011-10-21, 01:28:04,VALID,1009.322,VALID,0.0,VALID,104.0,VALID,0.0,VALID,22.661,VALID,36.0,VALID,0.0,
2011-10-21, 01:29:04,VALID,1009.325,VALID,0.0,VALID,104.0,VALID,0.0,VALID,22.681,VALID,36.0,VALID,0.093,
2011-10-21, 01:30:04,VALID,1009.32,VALID,0.0,VALID,104.0,VALID,0.0,VALID,22.661,VALID,36.0,VALID,0.228,
2011-10-21, 01:31:04,VALID,1009.332,VALID,0.0,VALID,104.0,VALID,0.0,VALID,22.661,VALID,36.0,VALID,0.366,
2011-10-21, 01:32:04,VALID,1009.299,VALID,0.0,VALID,104.0,VALID,0.0,VALID,22.661,VALID,36.0,VALID,0.278,
2011-10-21, 01:33:04,VALID,1009.303,VALID,0.0,VALID,104.0,VALID,0.0,VALID,22.661,VALID,36.0,VALID,0.261,
2011-10-21, 01:34:04,VALID,1009.304,VALID,0.0,VALID,104.0,VALID,0.0,VALID,22.642,VALID,36.0,VALID,0.466,
2011-10-21, 01:35:04,VALID,1009.295,VALID,0.0,VALID,104.0,VALID,0.0,VALID,22.661,VALID,36.0,VALID,0.261,
2011-10-21, 01:36:04,VALID,1009.29,VALID,0.0,VALID,104.0,VALID,0.0,VALID,22.642,VALID,36.0,VALID,0.327,
2011-10-21, 01:37:04,VALID,1009.317,VALID,0.0,VALID,104.0,VALID,0.0,VALID,22.642,VALID,36.0,VALID,0.22,
2011-10-21, 01:38:04,VALID,1009.323,VALID,0.0,VALID,104.0,VALID,0.0,VALID,22.642,VALID,36.0,VALID,0.0,
2011-10-21, 01:39:04,VALID,1009.326,VALID,0.0,VALID,104.0,VALID,0.0,VALID,22.642,VALID,36.0,VALID,0.0,
2011-10-21, 01:40:04,VALID,1009.309,VALID,0.0,VALID,104.0,VALID,0.0,VALID,22.642,VALID,36.0,VALID,0.0,
2011-10-21, 01:41:04,VALID,1009.285,VALID,0.0,VALID,104.0,VALID,0.0,VALID,22.642,VALID,36.0,VALID,0.123,
2011-10-21, 01:42:04,VALID,1009.291,VALID,0.0,VALID,104.0,VALID,0.0,VALID,22.622,VALID,36.0,VALID,0.456,
2011-10-21, 01:43:04,VALID,1009.296,VALID,0.0,VALID,104.0,VALID,0.0,VALID,22.622,VALID,36.0,VALID,0.1,
2011-10-21, 01:44:04,VALID,1009.291,VALID,0.0,VALID,104.0,VALID,0.0,VALID,22.642,VALID,36.0,VALID,0.049,
2011-10-21, 01:45:04,VALID,1009.286,VALID,0.0,VALID,104.0,VALID,0.0,VALID,22.622,VALID,36.0,VALID,0.0,
2011-10-21, 01:46:04,VALID,1009.291,VALID,0.0,VALID,104.0,VALID,0.0,VALID,22.622,VALID,36.0,VALID,0.067,
2011-10-21, 01:47:04,VALID,1009.273,VALID,0.0,VALID,104.0,VALID,0.0,VALID,22.642,VALID,36.0,VALID,0.011,
2011-10-21, 01:48:04,VALID,1009.287,VALID,0.0,VALID,104.0,VALID,0.0,VALID,22.642,VALID,36.0,VALID,0.149,
2011-10-21, 01:49:04,VALID,1009.263,VALID,0.0,VALID,104.0,VALID,0.0,VALID,22.661,VALID,36.0,VALID,0.188,
2011-10-21, 01:50:04,VALID,1009.266,VALID,0.0,VALID,104.0,VALID,0.0,VALID,22.661,VALID,36.0,VALID,0.226,
2011-10-21, 01:51:04,VALID,1009.26,VALID,0.0,VALID,104.0,VALID,0.0,VALID,22.681,VALID,36.0,VALID,0.454,
2011-10-21, 01:52:04,VALID,1009.26,VALID,0.0,VALID,104.0,VALID,0.0,VALID,22.7,VALID,36.0,VALID,0.365,
2011-10-21, 01:53:04,VALID,1009.263,VALID,0.0,VALID,104.0,VALID,0.0,VALID,22.72,VALID,36.0,VALID,0.359,
2011-10-21, 01:54:04,VALID,1009.242,VALID,0.0,VALID,104.0,VALID,0.0,VALID,22.7,VALID,36.0,VALID,0.381,
2011-10-21, 01:55:04,VALID,1009.216,VALID,0.0,VALID,104.0,VALID,0.0,VALID,22.72,VALID,36.0,VALID,0.494,
2011-10-21, 01:56:04,VALID,1009.246,VALID,0.0,VALID,104.0,VALID,0.112,VALID,22.72,VALID,36.0,VALID,0.405,
2011-10-21, 01:57:04,VALID,1009.272,VALID,0.0,VALID,104.0,VALID,0.0,VALID,22.72,VALID,36.0,VALID,0.412,
2011-10-21, 01:58:04,VALID,1009.247,VALID,0.0,VALID,104.0,VALID,0.0,VALID,22.739,VALID,36.0,VALID,0.207,
2011-10-21, 01:59:04,VALID,1009.252,VALID,0.0,VALID,104.0,VALID,0.0,VALID,22.739,VALID,36.0,VALID,0.543,
2011-10-21, 02:00:04,VALID,1009.264,VALID,0.0,VALID,104.0,VALID,0.0,VALID,22.72,VALID,129.0,VALID,0.619,
2011-10-21, 02:01:04,VALID,1009.258,VALID,0.0,VALID,104.0,VALID,0.0,VALID,22.739,VALID,129.0,VALID,0.444,
2011-10-21, 02:02:04,VALID,1009.259,VALID,0.0,VALID,104.0,VALID,0.0,VALID,22.739,VALID,129.0,VALID,0.428,
2011-10-21, 02:03:04,VALID,1009.219,VALID,0.0,VALID,104.0,VALID,0.0,VALID,22.739,VALID,129.0,VALID,0.574,
2011-10-21, 02:04:04,VALID,1009.225,VALID,0.0,VALID,104.0,VALID,0.0,VALID,22.739,VALID,129.0,VALID,0.299,
2011-10-21, 02:05:04,VALID,1009.191,VALID,0.0,VALID,104.0,VALID,0.112,VALID,22.72,VALID,112.0,VALID,0.761,
2011-10-21, 02:06:04,VALID,1009.176,VALID,0.0,VALID,104.0,VALID,0.0,VALID,22.7,VALID,105.0,VALID,0.652,
2011-10-21, 02:07:04,VALID,1009.167,VALID,0.0,VALID,104.0,VALID,0.0,VALID,22.679,VALID,106.0,VALID,0.464,
2011-10-21, 02:08:04,VALID,1009.185,VALID,0.0,VALID,104.0,VALID,0.0,VALID,22.7,VALID,106.0,VALID,0.254,
2011-10-21, 02:09:04,VALID,1009.137,VALID,0.0,VALID,104.0,VALID,0.112,VALID,22.72,VALID,89.0,VALID,0.457,
2011-10-21, 02:10:04,VALID,1009.155,VALID,0.0,VALID,104.0,VALID,0.112,VALID,22.7,VALID,90.0,VALID,0.58,
2011-10-21, 02:11:04,VALID,1009.136,VALID,0.0,VALID,104.0,VALID,0.0,VALID,22.7,VALID,119.0,VALID,0.772,
2011-10-21, 02:12:04,VALID,1009.155,VALID,0.0,VALID,104.0,VALID,0.0,VALID,22.7,VALID,141.0,VALID,1.103,
2011-10-21, 02:13:04,VALID,1009.127,VALID,0.0,VALID,104.0,VALID,0.112,VALID,22.7,VALID,145.0,VALID,0.706,
2011-10-21, 02:14:04,VALID,1009.12,VALID,0.0,VALID,104.0,VALID,0.0,VALID,22.72,VALID,142.0,VALID,0.388,
2011-10-21, 02:15:04,VALID,1009.156,VALID,0.0,VALID,104.0,VALID,0.0,VALID,22.72,VALID,142.0,VALID,0.2,
2011-10-21, 02:16:04,VALID,1009.2,VALID,0.0,VALID,104.0,VALID,0.0,VALID,22.7,VALID,142.0,VALID,0.31,
2011-10-21, 02:17:04,VALID,1009.209,VALID,0.0,VALID,104.0,VALID,0.112,VALID,22.7,VALID,142.0,VALID,0.281,
2011-10-21, 02:18:04,VALID,1009.209,VALID,0.0,VALID,104.0,VALID,0.0,VALID,22.72,VALID,142.0,VALID,0.16,
2011-10-21, 02:19:04,VALID,1009.229,VALID,0.0,VALID,104.0,VALID,0.0,VALID,22.7,VALID,142.0,VALID,0.239,
2011-10-21, 02:20:04,VALID,1009.223,VALID,0.0,VALID,104.0,VALID,0.0,VALID,22.7,VALID,133.0,VALID,0.559,
2011-10-21, 02:21:04,VALID,1009.245,VALID,0.0,VALID,104.0,VALID,0.0,VALID,22.72,VALID,97.0,VALID,0.187,
2011-10-21, 02:22:04,VALID,1009.27,VALID,0.0,VALID,104.0,VALID,0.0,VALID,22.72,VALID,91.0,VALID,0.836,
2011-10-21, 02:23:04,VALID,1009.265,VALID,0.0,VALID,104.0,VALID,0.0,VALID,22.739,VALID,93.0,VALID,0.523,
2011-10-21, 02:24:04,VALID,1009.3,VALID,0.0,VALID,104.0,VALID,0.0,VALID,22.72,VALID,53.0,VALID,0.91,
2011-10-21, 02:25:04,VALID,1009.348,VALID,0.0,VALID,104.0,VALID,0.0,VALID,22.72,VALID,38.0,VALID,0.567,
2011-10-21, 02:26:04,VALID,1009.337,VALID,0.0,VALID,104.0,VALID,0.112,VALID,22.72,VALID,61.0,VALID,0.9,
2011-10-21, 02:27:04,VALID,1009.335,VALID,0.0,VALID,104.0,VALID,0.0,VALID,22.7,VALID,83.0,VALID,0.765,
2011-10-21, 02:28:04,VALID,1009.359,VALID,0.0,VALID,104.0,VALID,0.0,VALID,22.681,VALID,80.0,VALID,0.5,
2011-10-21, 02:29:04,VALID,1009.4,VALID,0.0,VALID,104.0,VALID,0.0,VALID,22.702,VALID,79.0,VALID,0.512,
2011-10-21, 02:30:04,VALID,1009.444,VALID,0.0,VALID,104.0,VALID,0.0,VALID,22.642,VALID,75.0,VALID,0.789,
2011-10-21, 02:31:04,VALID,1009.437,VALID,0.0,VALID,104.0,VALID,0.0,VALID,22.661,VALID,55.0,VALID,0.732,
2011-10-21, 02:32:04,VALID,1009.478,VALID,0.0,VALID,104.0,VALID,0.0,VALID,22.661,VALID,56.0,VALID,0.958,
2011-10-21, 02:33:04,VALID,1009.491,VALID,0.0,VALID,104.0,VALID,0.112,VALID,22.642,VALID,35.0,VALID,0.455,
2011-10-21, 02:34:04,VALID,1009.497,VALID,0.0,VALID,104.0,VALID,0.0,VALID,22.642,VALID,57.0,VALID,0.987,
2011-10-21, 02:35:04,VALID,1009.517,VALID,0.0,VALID,104.0,VALID,0.0,VALID,22.622,VALID,47.0,VALID,0.685,
2011-10-21, 02:36:04,VALID,1009.554,VALID,0.0,VALID,104.0,VALID,0.0,VALID,22.603,VALID,47.0,VALID,0.339,
2011-10-21, 02:37:04,VALID,1009.551,VALID,0.0,VALID,104.0,VALID,0.0,VALID,22.644,VALID,47.0,VALID,0.459,
2011-10-21, 02:38:04,VALID,1009.577,VALID,0.0,VALID,104.0,VALID,0.0,VALID,22.642,VALID,47.0,VALID,0.341,
2011-10-21, 02:39:04,VALID,1009.593,VALID,0.0,VALID,104.0,VALID,0.0,VALID,22.603,VALID,47.0,VALID,0.203,
2011-10-21, 02:40:04,VALID,1009.598,VALID,0.0,VALID,104.0,VALID,0.112,VALID,22.622,VALID,47.0,VALID,0.264,
2011-10-21, 02:41:04,VALID,1009.586,VALID,0.0,VALID,104.0,VALID,0.0,VALID,22.603,VALID,47.0,VALID,0.35,
2011-10-21, 02:42:04,VALID,1009.599,VALID,0.0,VALID,104.0,VALID,0.0,VALID,22.605,VALID,51.0,VALID,0.648,
2011-10-21, 02:43:04,VALID,1009.594,VALID,0.0,VALID,104.0,VALID,0.0,VALID,22.584,VALID,51.0,VALID,0.55,
2011-10-21, 02:44:04,VALID,1009.562,VALID,0.0,VALID,104.0,VALID,0.0,VALID,22.603,VALID,51.0,VALID,0.416,
2011-10-21, 02:45:04,VALID,1009.535,VALID,0.0,VALID,104.0,VALID,0.0,VALID,22.603,VALID,51.0,VALID,0.431,
2011-10-21, 02:46:04,VALID,1009.545,VALID,0.0,VALID,104.0,VALID,0.0,VALID,22.622,VALID,51.0,VALID,0.002,
2011-10-21, 02:47:04,VALID,1009.525,VALID,0.0,VALID,104.0,VALID,0.0,VALID,22.603,VALID,51.0,VALID,0.269,
2011-10-21, 02:48:04,VALID,1009.496,VALID,0.0,VALID,104.0,VALID,0.0,VALID,22.603,VALID,51.0,VALID,0.136,
2011-10-21, 02:49:04,VALID,1009.478,VALID,0.0,VALID,104.0,VALID,0.0,VALID,22.603,VALID,40.0,VALID,0.27,
2011-10-21, 02:50:04,VALID,1009.495,VALID,0.0,VALID,104.0,VALID,0.0,VALID,22.603,VALID,24.0,VALID,0.556,
2011-10-21, 02:51:04,VALID,1009.442,VALID,0.0,VALID,104.0,VALID,0.0,VALID,22.624,VALID,349.0,VALID,0.677,
2011-10-21, 02:52:04,VALID,1009.434,VALID,0.0,VALID,104.0,VALID,0.0,VALID,22.624,VALID,347.0,VALID,0.653,
2011-10-21, 02:53:04,VALID,1009.428,VALID,0.0,VALID,104.0,VALID,0.0,VALID,22.622,VALID,347.0,VALID,0.41,
2011-10-21, 02:54:04,VALID,1009.409,VALID,0.0,VALID,104.0,VALID,0.112,VALID,22.642,VALID,346.0,VALID,0.5,
2011-10-21, 02:55:04,VALID,1009.426,VALID,0.0,VALID,104.0,VALID,0.0,VALID,22.642,VALID,319.0,VALID,0.502,
2011-10-21, 02:56:04,VALID,1009.4,VALID,0.0,VALID,104.0,VALID,0.0,VALID,22.661,VALID,319.0,VALID,0.108,
2011-10-21, 02:57:04,VALID,1009.389,VALID,0.0,VALID,104.0,VALID,0.0,VALID,22.681,VALID,319.0,VALID,0.0,
2011-10-21, 02:58:04,VALID,1009.392,VALID,0.0,VALID,104.0,VALID,0.0,VALID,22.681,VALID,319.0,VALID,0.364,
2011-10-21, 02:59:04,VALID,1009.394,VALID,0.0,VALID,104.0,VALID,0.0,VALID,22.661,VALID,319.0,VALID,0.208,
2011-10-21, 03:00:04,VALID,1009.44,VALID,0.0,VALID,104.0,VALID,0.112,VALID,22.661,VALID,319.0,VALID,0.0,
2011-10-21, 03:01:04,VALID,1009.445,VALID,0.0,VALID,104.0,VALID,0.112,VALID,22.64,VALID,319.0,VALID,0.0,
2011-10-21, 03:02:04,VALID,1009.451,VALID,0.0,VALID,104.0,VALID,0.0,VALID,22.64,VALID,319.0,VALID,0.381,
2011-10-21, 03:03:04,VALID,1009.468,VALID,0.0,VALID,104.0,VALID,0.0,VALID,22.64,VALID,319.0,VALID,0.404,
2011-10-21, 03:04:04,VALID,1009.505,VALID,0.0,VALID,104.0,VALID,0.0,VALID,22.642,VALID,319.0,VALID,0.376,
2011-10-21, 03:05:04,VALID,1009.521,VALID,0.0,VALID,104.0,VALID,0.0,VALID,22.661,VALID,319.0,VALID,0.279,
2011-10-21, 03:06:04,VALID,1009.551,VALID,0.0,VALID,104.0,VALID,0.0,VALID,22.681,VALID,319.0,VALID,0.414,
2011-10-21, 03:07:04,VALID,1009.585,VALID,0.0,VALID,104.0,VALID,0.0,VALID,22.661,VALID,25.0,VALID,0.523,
2011-10-21, 03:08:04,VALID,1009.566,VALID,0.0,VALID,104.0,VALID,0.0,VALID,22.642,VALID,60.0,VALID,0.683,
2011-10-21, 03:09:04,VALID,1009.604,VALID,0.0,VALID,104.0,VALID,0.0,VALID,22.66,VALID,62.0,VALID,0.546,
2011-10-21, 03:10:04,VALID,1009.633,VALID,0.0,VALID,104.0,VALID,0.0,VALID,22.681,VALID,62.0,VALID,0.487,
2011-10-21, 03:11:04,VALID,1009.615,VALID,0.0,VALID,104.0,VALID,0.0,VALID,22.7,VALID,66.0,VALID,0.478,
2011-10-21, 03:12:04,VALID,1009.63,VALID,0.0,VALID,104.0,VALID,0.0,VALID,22.679,VALID,72.0,VALID,1.07,
2011-10-21, 03:13:04,VALID,1009.611,VALID,0.0,VALID,104.0,VALID,0.0,VALID,22.7,VALID,73.0,VALID,0.741,
2011-10-21, 03:14:04,VALID,1009.601,VALID,0.0,VALID,104.0,VALID,0.0,VALID,22.7,VALID,71.0,VALID,0.53,
2011-10-21, 03:15:04,VALID,1009.621,VALID,0.0,VALID,104.0,VALID,0.0,VALID,22.679,VALID,75.0,VALID,0.742,
2011-10-21, 03:16:04,VALID,1009.585,VALID,0.0,VALID,104.0,VALID,0.0,VALID,22.7,VALID,75.0,VALID,0.457,
2011-10-21, 03:17:04,VALID,1009.572,VALID,0.0,VALID,104.0,VALID,0.0,VALID,22.7,VALID,80.0,VALID,0.823,
2011-10-21, 03:18:04,VALID,1009.576,VALID,0.0,VALID,104.0,VALID,0.0,VALID,22.681,VALID,78.0,VALID,0.821,
2011-10-21, 03:19:04,VALID,1009.588,VALID,0.0,VALID,104.0,VALID,0.0,VALID,22.7,VALID,82.0,VALID,0.966,
2011-10-21, 03:20:04,VALID,1009.572,VALID,0.0,VALID,104.0,VALID,0.0,VALID,22.679,VALID,83.0,VALID,1.227,
2011-10-21, 03:21:04,VALID,1009.575,VALID,0.0,VALID,104.0,VALID,0.0,VALID,22.699,VALID,84.0,VALID,0.705,
2011-10-21, 03:22:04,VALID,1009.579,VALID,0.0,VALID,104.0,VALID,0.0,VALID,22.739,VALID,110.0,VALID,0.652,
2011-10-21, 03:23:04,VALID,1009.581,VALID,0.0,VALID,104.0,VALID,0.0,VALID,22.72,VALID,107.0,VALID,0.809,
2011-10-21, 03:24:04,VALID,1009.574,VALID,0.0,VALID,104.0,VALID,0.0,VALID,22.739,VALID,124.0,VALID,0.741,
2011-10-21, 03:25:04,VALID,1009.565,VALID,0.0,VALID,104.0,VALID,0.0,VALID,22.72,VALID,109.0,VALID,0.857,
2011-10-21, 03:26:04,VALID,1009.59,VALID,0.0,VALID,104.0,VALID,0.0,VALID,22.72,VALID,118.0,VALID,0.934,
2011-10-21, 03:27:04,VALID,1009.569,VALID,0.0,VALID,104.0,VALID,0.0,VALID,22.72,VALID,115.0,VALID,0.795,
2011-10-21, 03:28:04,VALID,1009.531,VALID,0.0,VALID,104.0,VALID,0.0,VALID,22.72,VALID,99.0,VALID,0.869,
2011-10-21, 03:29:04,VALID,1009.502,VALID,0.0,VALID,104.0,VALID,0.0,VALID,22.72,VALID,108.0,VALID,0.686,
2011-10-21, 03:30:04,VALID,1009.493,VALID,0.0,VALID,104.0,VALID,0.0,VALID,22.7,VALID,110.0,VALID,0.523,
2011-10-21, 03:31:04,VALID,1009.449,VALID,0.0,VALID,104.0,VALID,0.0,VALID,22.681,VALID,125.0,VALID,1.202,
2011-10-21, 03:32:04,VALID,1009.435,VALID,0.0,VALID,104.0,VALID,0.0,VALID,22.7,VALID,120.0,VALID,0.869,
2011-10-21, 03:33:04,VALID,1009.43,VALID,0.0,VALID,104.0,VALID,0.0,VALID,22.7,VALID,126.0,VALID,0.643,
2011-10-21, 03:34:04,VALID,1009.424,VALID,0.0,VALID,104.0,VALID,0.0,VALID,22.7,VALID,130.0,VALID,1.047,
2011-10-21, 03:35:04,VALID,1009.438,VALID,0.0,VALID,104.0,VALID,0.0,VALID,22.7,VALID,126.0,VALID,0.723,
2011-10-21, 03:36:04,VALID,1009.452,VALID,0.0,VALID,104.0,VALID,0.0,VALID,22.7,VALID,124.0,VALID,0.982,
2011-10-21, 03:37:04,VALID,1009.441,VALID,0.0,VALID,104.0,VALID,0.0,VALID,22.679,VALID,108.0,VALID,1.048,
2011-10-21, 03:38:04,VALID,1009.464,VALID,0.0,VALID,104.0,VALID,0.0,VALID,22.7,VALID,120.0,VALID,0.91,
2011-10-21, 03:39:04,VALID,1009.455,VALID,0.0,VALID,104.0,VALID,0.0,VALID,22.7,VALID,116.0,VALID,0.809,
2011-10-21, 03:40:04,VALID,1009.45,VALID,0.0,VALID,104.0,VALID,0.0,VALID,22.681,VALID,115.0,VALID,1.061,
2011-10-21, 03:41:04,VALID,1009.449,VALID,0.0,VALID,104.0,VALID,0.0,VALID,22.7,VALID,122.0,VALID,0.845,
2011-10-21, 03:42:04,VALID,1009.439,VALID,0.0,VALID,104.0,VALID,0.0,VALID,22.681,VALID,128.0,VALID,0.702,
2011-10-21, 03:43:04,VALID,1009.417,VALID,0.0,VALID,104.0,VALID,0.0,VALID,22.66,VALID,138.0,VALID,0.355,
2011-10-21, 03:44:04,VALID,1009.401,VALID,0.0,VALID,104.0,VALID,0.0,VALID,22.661,VALID,123.0,VALID,0.776,